Regional Weather Roundup
Issued by NWS

Home | Current Version | Previous Version | Graphics & Text | Print | Product List | Glossary On
Versions: 1 2 3 4 5 6 7 8 9 10 11 12 13 14 15 16 17 18 19 20 21 22 23 24 25 26 27 28
000
ASUS45 KCYS 181410
RWRWY

WYOMING REGIONAL WEATHER ROUNDUP
NATIONAL WEATHER SERVICE CHEYENNE WY
700 AM MST WED JAN 18 2017

NOTE:  "FAIR" INDICATES FEW OR NO CLOUDS BELOW 12,000 FEET
WITH NO SIGNIFICANT WEATHER AND/OR OBSTRUCTIONS TO VISIBILITY.

WYZ001-181500-
YELLOWSTONE NATIONAL PARK

CITY           SKY/WX    TMP DP  RH WIND       PRES   REMARKS
LK YELLOWSTONE   N/A     -9 -13  83 CALM      30.05S
W YELLOWSTONE  NOT AVBL

$$
WYZ002>013-054>058-071-098>099-181500-
NORTHERN WYOMING

CITY           SKY/WX    TMP DP  RH WIND       PRES   REMARKS
JACKSON        CLEAR     -9 -13  84 N8        30.11F WCI -26
CODY           FAIR      12   6  77 S5        29.85F WCI   4
GREYBULL       FAIR      -5  -9  83 CALM      29.92F
WORLAND        FAIR      -1  -4  87 NE5       29.90R WCI -11
SHERIDAN       FAIR      18  12  77 S9        29.77F WCI   7
BUFFALO        FAIR      34  15  46 CALM      29.78S
GILLETTE       FAIR      25  16  68 S3        29.81S
HULETT         FAIR      34  21  60 SW12      29.80F WCI  25
NEWCASTLE      FAIR      23  14  68 N5        29.87F WCI  17

$$
WYZ014>020-022>026-101>103-181500-
CENTRAL WYOMING

CITY           SKY/WX    TMP DP  RH WIND       PRES   REMARKS
BIG PINEY      FAIR     -14 -18  82 CALM      30.09S
PINEDALE       FAIR     -15 -18  84 CALM      30.09S
DUBOIS         NOT AVBL
LANDER         FAIR       8   5  87 W3        29.97S
RIVERTON       FAIR       2  -2  83 NW5       29.99S WCI  -8
CASPER         FAIR      29  15  56 SW25G38   29.91F WCI  14
DOUGLAS        FAIR      17  12  80 CALM      29.92F

$$
WYZ021-027>030-104>119-181500-
SOUTHERN WYOMING

CITY           SKY/WX    TMP DP  RH WIND       PRES   REMARKS
EVANSTON       FAIR      12   3  67 SE8       30.07F WCI   0
ROCK SPRINGS   FAIR      -4  -8  83 S5        30.08F FOG     WCI -15
RAWLINS        FAIR       5   1  83 CALM      30.06F
LARAMIE        FAIR       0  -4  83 S7        29.99F WCI -13
CHEYENNE       FAIR      27  10  49 W13       29.91F WCI  16
TORRINGTON     FAIR      26  14  60 NW13      29.88F WCI  15

$$




USA.gov is the U.S. government's official web portal to all federal, state and local government web resources and services.